When you browse on this site, cookies collect data to enhance your experience and personalize the content and advertising you see.
Visit our Privacy Policy to learn more. By continuing to use the site, you agree to this use of cookies and data.
  • In Schweiz
  • Länderverzeichnis
  • Für 7 Tage
  • Wassertemperatur
  • Wetterkarte
  • Widgets
  • user-avatar
    Anmelden

    Stündliche Wetter Narichino

    Heute, 25 August, Sonntag

    Zeit Temperatur Niederschläge Wind Luftdruck Luftfeuchtigkeit
    00:00 +15°C° 0 mm 2 m/S 753 mmHg 93%
    01:00 +14°C° 0 mm 2 m/S 753 mmHg 93%
    02:00 +14°C° 0 mm 2 m/S 753 mmHg 94%
    03:00 +14°C° 0 mm 2 m/S 753 mmHg 94%
    04:00 +14°C° 0 mm 1 m/S 753 mmHg 94%
    05:00 +13°C° 0 mm 1 m/S 754 mmHg 94%
    06:00 +15°C° 0 mm 1 m/S 754 mmHg 89%
    07:00 +18°C° 0 mm 1 m/S 754 mmHg 83%
    08:00 +19°C° 0 mm 1 m/S 755 mmHg 77%
    09:00 +19°C° 0 mm 2 m/S 755 mmHg 71%
    10:00 +20°C° 0 mm 2 m/S 755 mmHg 66%
    11:00 +23°C° 0 mm 2 m/S 755 mmHg 60%
    12:00 +23°C° 0 mm 2 m/S 755 mmHg 58%
    13:00 +23°C° 0 mm 2 m/S 755 mmHg 57%
    14:00 +24°C° 0 mm 2 m/S 755 mmHg 55%
    15:00 +23°C° 0 mm 2 m/S 754 mmHg 59%
    16:00 +23°C° 0 mm 2 m/S 754 mmHg 64%
    17:00 +22°C° 0 mm 1 m/S 754 mmHg 68%
    18:00 +20°C° 0 mm 1 m/S 755 mmHg 72%
    19:00 +18°C° 0 mm 1 m/S 755 mmHg 76%
    20:00 +15°C° 0 mm 1 m/S 755 mmHg 79%
    21:00 +15°C° 0 mm 1 m/S 755 mmHg 82%
    22:00 +14°C° 0 mm 1 m/S 755 mmHg 84%
    23:00 +13°C° 0 mm 1 m/S 755 mmHg 87%

    Morgen, 26 August, Montag

    Zeit Temperatur Niederschläge Wind Luftdruck Luftfeuchtigkeit
    00:00 +13°C° 0 mm 1 m/S 755 mmHg 88%
    01:00 +13°C° 0 mm 1 m/S 755 mmHg 89%
    02:00 +12°C° 0 mm 1 m/S 756 mmHg 90%
    03:00 +12°C° 0 mm 1 m/S 755 mmHg 90%
    04:00 +12°C° 0 mm 1 m/S 755 mmHg 91%
    05:00 +11°C° 0 mm 0 m/S 755 mmHg 92%
    06:00 +13°C° 0 mm 0 m/S 755 mmHg 86%
    07:00 +15°C° 0 mm 0 m/S 755 mmHg 81%
    08:00 +16°C° 0 mm 0 m/S 755 mmHg 75%
    09:00 +18°C° 0 mm 0 m/S 755 mmHg 71%
    10:00 +21°C° 0 mm 1 m/S 755 mmHg 66%
    11:00 +23°C° 0 mm 1 m/S 755 mmHg 61%
    12:00 +23°C° 0 mm 1 m/S 755 mmHg 59%
    13:00 +23°C° 0 mm 2 m/S 754 mmHg 57%
    14:00 +24°C° 0 mm 2 m/S 754 mmHg 56%
    15:00 +23°C° 0 mm 2 m/S 754 mmHg 61%
    16:00 +23°C° 0 mm 2 m/S 753 mmHg 66%
    17:00 +23°C° 0 mm 1 m/S 753 mmHg 71%
    18:00 +20°C° 0 mm 2 m/S 753 mmHg 75%
    19:00 +18°C° 0 mm 2 m/S 752 mmHg 80%
    20:00 +16°C° 0 mm 2 m/S 752 mmHg 84%
    21:00 +16°C° 0 mm 2 m/S 752 mmHg 85%
    22:00 +16°C° 0 mm 2 m/S 752 mmHg 86%
    23:00 +16°C° 0 mm 2 m/S 752 mmHg 87%

    übermorgen, 27 August, Dienstag

    Zeit Temperatur Niederschläge Wind Luftdruck Luftfeuchtigkeit
    00:00 +16°C° 0 mm 2 m/S 752 mmHg 88%
    01:00 +15°C° 0 mm 2 m/S 752 mmHg 89%
    02:00 +15°C° 0 mm 2 m/S 751 mmHg 89%
    03:00 +14°C° 0 mm 3 m/S 751 mmHg 91%
    04:00 +14°C° 0 mm 3 m/S 751 mmHg 93%
    05:00 +14°C° 0 mm 3 m/S 751 mmHg 95%
    06:00 +16°C° 0 mm 3 m/S 751 mmHg 92%
    07:00 +17°C° 0 mm 3 m/S 751 mmHg 88%
    08:00 +19°C° 0 mm 3 m/S 751 mmHg 85%
    09:00 +20°C° 0 mm 4 m/S 751 mmHg 79%
    10:00 +21°C° 0 mm 4 m/S 751 mmHg 74%
    11:00 +22°C° 0 mm 4 m/S 751 mmHg 69%
    12:00 +22°C° 0 mm 4 m/S 751 mmHg 67%
    13:00 +23°C° 0 mm 4 m/S 751 mmHg 64%
    14:00 +23°C° 0 mm 4 m/S 751 mmHg 62%
    15:00 +23°C° 0 mm 4 m/S 751 mmHg 65%
    16:00 +22°C° 0 mm 3 m/S 751 mmHg 68%
    17:00 +21°C° 0 mm 3 m/S 751 mmHg 71%
    18:00 +20°C° 0 mm 3 m/S 751 mmHg 74%
    19:00 +18°C° 0 mm 3 m/S 751 mmHg 77%
    20:00 +16°C° 0 mm 2 m/S 751 mmHg 81%
    21:00 +15°C° 0 mm 2 m/S 751 mmHg 81%
    22:00 +14°C° 0 mm 2 m/S 752 mmHg 82%
    23:00 +13°C° 0 mm 2 m/S 752 mmHg 82%

    28 August, Mittwoch

    Zeit Temperatur Niederschläge Wind Luftdruck Luftfeuchtigkeit
    00:00 +13°C° 0 mm 2 m/S 752 mmHg 85%
    01:00 +13°C° 0 mm 2 m/S 752 mmHg 88%
    02:00 +12°C° 0 mm 2 m/S 752 mmHg 90%
    03:00 +12°C° 0 mm 2 m/S 752 mmHg 92%
    04:00 +12°C° 0 mm 2 m/S 753 mmHg 94%
    05:00 +10°C° 0 mm 2 m/S 753 mmHg 96%
    06:00 +11°C° 0 mm 3 m/S 753 mmHg 90%
    07:00 +13°C° 0 mm 3 m/S 753 mmHg 85%
    08:00 +14°C° 0 mm 3 m/S 754 mmHg 79%
    09:00 +16°C° 0 mm 3 m/S 754 mmHg 73%
    10:00 +17°C° 0 mm 3 m/S 754 mmHg 66%
    11:00 +17°C° 0 mm 3 m/S 754 mmHg 60%
    12:00 +18°C° 0 mm 3 m/S 754 mmHg 57%
    13:00 +18°C° 0 mm 3 m/S 753 mmHg 53%
    14:00 +19°C° 0 mm 3 m/S 753 mmHg 50%
    15:00 +18°C° 0 mm 3 m/S 753 mmHg 54%
    16:00 +17°C° 0 mm 3 m/S 753 mmHg 58%
    17:00 +17°C° 0 mm 2 m/S 753 mmHg 62%
    18:00 +15°C° 0 mm 2 m/S 753 mmHg 64%
    19:00 +13°C° 0 mm 2 m/S 754 mmHg 66%
    20:00 +10°C° 0 mm 3 m/S 754 mmHg 69%
    21:00 +10°C° 0 mm 2 m/S 754 mmHg 71%
    22:00 +9°C° 0 mm 2 m/S 754 mmHg 73%
    23:00 +8°C° 0 mm 2 m/S 754 mmHg 76%

    29 August, Donnerstag

    Zeit Temperatur Niederschläge Wind Luftdruck Luftfeuchtigkeit
    00:00 +8°C° 0 mm 2 m/S 755 mmHg 78%
    01:00 +7°C° 0 mm 2 m/S 755 mmHg 80%
    02:00 +7°C° 0 mm 2 m/S 755 mmHg 82%
    03:00 +6°C° 0 mm 2 m/S 755 mmHg 84%
    04:00 +6°C° 0 mm 2 m/S 755 mmHg 85%
    05:00 +6°C° 0 mm 2 m/S 755 mmHg 87%
    06:00 +7°C° 0 mm 2 m/S 755 mmHg 81%
    07:00 +9°C° 0 mm 2 m/S 755 mmHg 75%
    08:00 +12°C° 0 mm 2 m/S 755 mmHg 69%
    09:00 +13°C° 0 mm 2 m/S 755 mmHg 64%
    10:00 +15°C° 0 mm 2 m/S 755 mmHg 58%
    11:00 +16°C° 0 mm 2 m/S 755 mmHg 53%
    12:00 +17°C° 0 mm 2 m/S 755 mmHg 52%
    13:00 +18°C° 0 mm 2 m/S 755 mmHg 51%
    14:00 +19°C° 0 mm 2 m/S 754 mmHg 50%
    15:00 +18°C° 0 mm 2 m/S 754 mmHg 55%
    16:00 +19°C° 0 mm 1 m/S 754 mmHg 60%
    17:00 +19°C° 0 mm 1 m/S 754 mmHg 65%
    18:00 +16°C° 0 mm 1 m/S 754 mmHg 69%
    19:00 +14°C° 0 mm 1 m/S 754 mmHg 73%
    20:00 +12°C° 0 mm 1 m/S 754 mmHg 77%
    21:00 +12°C° 0 mm 1 m/S 754 mmHg 78%
    22:00 +11°C° 0 mm 1 m/S 754 mmHg 80%
    23:00 +11°C° 0 mm 1 m/S 754 mmHg 81%

    30 August, Freitag

    Zeit Temperatur Niederschläge Wind Luftdruck Luftfeuchtigkeit
    00:00 +10°C° 0 mm 1 m/S 754 mmHg 82%
    01:00 +10°C° 0 mm 1 m/S 754 mmHg 83%
    02:00 +10°C° 0 mm 1 m/S 754 mmHg 83%
    03:00 +10°C° 0 mm 1 m/S 753 mmHg 84%
    04:00 +9°C° 0 mm 1 m/S 753 mmHg 85%
    05:00 +9°C° 0 mm 1 m/S 753 mmHg 86%
    06:00 +11°C° 0 mm 1 m/S 753 mmHg 80%
    07:00 +13°C° 0 mm 1 m/S 753 mmHg 73%
    08:00 +15°C° 0 mm 1 m/S 754 mmHg 67%
    09:00 +16°C° 0 mm 1 m/S 754 mmHg 63%
    10:00 +19°C° 0 mm 1 m/S 754 mmHg 59%
    11:00 +20°C° 0 mm 1 m/S 754 mmHg 55%
    12:00 +21°C° 0 mm 1 m/S 754 mmHg 55%
    13:00 +21°C° 0 mm 1 m/S 753 mmHg 54%
    14:00 +22°C° 0 mm 1 m/S 753 mmHg 54%
    15:00 +21°C° 0 mm 1 m/S 753 mmHg 59%
    16:00 +21°C° 0 mm 1 m/S 753 mmHg 64%
    17:00 +21°C° 0 mm 1 m/S 753 mmHg 69%
    18:00 +19°C° 0 mm 1 m/S 753 mmHg 73%
    19:00 +15°C° 0 mm 0 m/S 753 mmHg 77%
    20:00 +13°C° 0 mm 0 m/S 753 mmHg 81%
    21:00 +13°C° 0 mm 0 m/S 754 mmHg 82%
    22:00 +14°C° 0 mm 1 m/S 754 mmHg 83%
    23:00 +13°C° 0 mm 1 m/S 754 mmHg 84%
    Mehr zeigen